CW6335 Weather Reports


Display with metric or nautical units.
time (UTC)temp
F
wind
direction
speed
MPH
gust
MPH
rain 1hr
in
rain 24hr
in
rain mn
in
humidity
%
barometer
mb
20260506154337 59 273 0.0 0.0 0.00 0.00 0.00 90 1018.7
20260506153351 57 314 0.0 0.0 0.00 0.00 0.00 94 1018.7
20260506152344 56 208 0.0 0.0 0.00 0.00 0.00 97 1018.7
20260506151356 54 207 0.0 0.0 0.00 0.00 0.00 97 1018.8
20260506150349 53 207 0.0 0.0 0.00 0.00 0.00 97 1018.8
20260506145343 51 207 0.0 0.0 0.00 0.00 0.00 97 1018.8
20260506143350 48 195 0.0 0.0 0.00 0.00 0.00 97 1018.7
20260506142343 47 195 0.0 0.0 0.00 0.00 0.00 97 1018.7
20260506141354 46 195 0.0 0.0 0.00 0.00 0.00 97 1018.6
20260506140351 44 195 0.0 0.0 0.00 0.00 0.00 96 1018.5
20260506135344 43 195 0.0 0.0 0.00 0.00 0.00 96 1018.5
20260506134338 42 195 0.0 0.0 0.00 0.00 0.00 95 1018.6
20260506133351 42 195 0.0 0.0 0.00 0.00 0.00 95 1018.4
20260506132340 42 195 0.0 0.0 0.00 0.00 0.00 95 1018.4
20260506131353 42 195 0.0 0.0 0.00 0.00 0.00 95 1018.2
20260506130348 42 195 0.0 0.0 0.00 0.00 0.00 95 1018.2
20260506125341 42 195 0.0 0.0 0.00 0.00 0.00 95 1018.2
20260506124349 42 195 0.0 0.0 0.00 0.00 0.00 95 1018.2
20260506123342 42 195 0.0 0.0 0.00 0.00 0.00 95 1018.2
20260506122339 42 195 0.0 0.0 0.00 0.00 0.00 95 1018.2
20260506121334 42 195 0.0 0.0 0.00 0.00 0.00 95 1018.2
20260506120350 43 195 0.0 0.0 0.00 0.00 0.00 95 1018.2
20260506115402 43 195 0.0 0.0 0.00 0.00 0.00 95 1018.2
20260506114414 44 195 0.0 0.0 0.00 0.00 0.00 95 1018.2
20260506113346 44 195 0.0 0.0 0.00 0.00 0.00 95 1018.2
20260506112340 44 195 0.0 0.0 0.00 0.00 0.00 95 1018.2
20260506111413 45 195 0.0 0.0 0.00 0.00 0.00 95 1018.1
20260506110404 45 195 0.0 0.0 0.00 0.00 0.00 95 1018.1
20260506105337 45 195 0.0 0.0 0.00 0.00 0.00 94 1018.1
20260506104349 46 195 0.0 0.0 0.00 0.00 0.00 94 1018.0
20260506103345 46 195 0.0 0.0 0.00 0.00 0.00 94 1018.1
20260506102340 46 195 0.0 0.0 0.00 0.00 0.00 95 1018.1
20260506101356 47 195 0.0 0.0 0.00 0.00 0.00 94 1018.1
20260506100350 47 195 0.0 0.0 0.00 0.00 0.00 95 1018.1
20260506095340 47 195 0.0 0.0 0.00 0.00 0.00 95 1018.1
20260506094333 47 195 0.0 0.0 0.00 0.00 0.00 95 1018.2
20260506093347 46 195 0.0 0.0 0.00 0.00 0.00 95 1018.1
20260506092341 46 195 0.0 0.0 0.00 0.00 0.00 94 1018.1
20260506091353 47 195 0.0 0.0 0.00 0.00 0.00 94 1018.2
20260506090346 47 195 0.0 0.0 0.00 0.00 0.00 94 1018.2
20260506085342 47 195 0.0 0.0 0.00 0.00 0.00 94 1018.2
20260506084413 46 195 0.0 0.0 0.00 0.00 0.00 94 1018.2
20260506083403 46 195 0.0 0.0 0.00 0.00 0.00 93 1018.2
20260506082358 47 195 0.0 0.0 0.00 0.00 0.00 93 1018.2
20260506081353 48 195 0.0 0.0 0.00 0.00 0.00 94 1018.2
20260506080347 48 195 0.0 0.0 0.00 0.00 0.00 94 1018.2
20260506073347 49 195 0.0 0.0 0.00 0.00 0.00 92 1018.0
20260506072340 50 195 0.0 0.0 0.00 0.00 0.00 93 1018.0
20260506071334 50 195 0.0 0.0 0.00 0.00 0.00 93 1017.9
20260506070346 50 195 0.0 0.0 0.00 0.00 0.00 93 1017.7
20260506062344 51 195 0.0 0.0 0.00 0.00 0.00 92 1017.5
20260506061335 51 195 0.0 0.0 0.00 0.00 0.00 92 1017.4
20260506060408 51 195 0.0 0.0 0.00 0.00 0.00 91 1017.3
20260506051337 52 195 0.0 0.0 0.00 0.00 0.00 89 1017.1
20260506050350 52 195 0.0 0.0 0.00 0.00 0.00 88 1016.8
20260506044335 53 195 0.0 0.0 0.00 0.00 0.00 87 1016.7
20260506043406 54 195 0.0 0.0 0.00 0.00 0.00 86 1016.6
20260506042339 54 195 0.0 0.0 0.00 0.00 0.00 86 1016.6
20260506041334 55 195 0.0 0.0 0.00 0.00 0.00 86 1016.5
20260506040351 55 195 0.0 0.0 0.00 0.00 0.00 86 1016.1
20260506035345 55 195 0.0 0.0 0.00 0.00 0.00 85 1016.1
20260506034340 55 195 0.0 0.0 0.00 0.00 0.00 85 1016.0
20260506033353 55 195 0.0 0.0 0.00 0.00 0.00 84 1015.6
20260506032347 56 195 0.0 0.0 0.00 0.00 0.00 83 1015.6
20260506031339 56 195 0.0 0.0 0.00 0.00 0.00 82 1015.4
20260506030352 56 195 0.0 0.0 0.00 0.00 0.00 81 1015.2
20260506025345 57 193 0.0 0.0 0.00 0.00 0.00 79 1015.2
20260506024341 57 192 0.0 0.0 0.00 0.00 0.00 78 1015.0
20260506023334 57 192 0.0 0.0 0.00 0.00 0.00 77 1014.9
20260506022405 58 192 0.0 0.0 0.00 0.00 0.00 76 1014.9
20260506021338 58 192 0.0 0.0 0.00 0.00 0.00 76 1014.9
20260506020411 58 192 0.0 0.0 0.00 0.00 0.00 74 1014.6
20260506015344 59 269 0.0 0.0 0.00 0.00 0.00 73 1014.6
20260506014335 60 271 0.0 0.0 0.00 0.00 0.00 72 1014.4
20260506013347 60 275 0.0 0.0 0.00 0.00 0.00 71 1014.4
20260506012341 61 261 0.0 0.0 0.00 0.00 0.00 69 1014.4
20260506011334 62 267 0.0 0.0 0.00 0.00 0.00 69 1014.4
20260506010347 62 269 0.0 0.0 0.00 0.00 0.00 68 1014.4
20260506005341 62 271 0.0 0.0 0.00 0.00 0.00 68 1014.4
20260506004352 63 262 0.0 0.0 0.00 0.00 0.00 67 1014.3
20260506003345 65 277 0.0 0.0 0.00 0.00 0.00 63 1014.3
20260506002338 66 262 0.0 0.0 0.00 0.00 0.00 63 1014.3
20260506001332 65 233 0.0 0.0 0.00 0.00 0.00 64 1014.2
20260506000346 65 194 0.0 0.0 0.00 0.00 0.00 62 1014.0
20260505235339 66 275 0.0 0.0 0.00 0.00 0.00 61 1014.0
20260505234412 66 259 0.0 0.0 0.00 0.00 0.00 61 1014.1
20260505233347 67 294 0.0 0.0 0.00 0.00 0.00 60 1014.1
20260505232341 67 270 0.0 0.0 0.00 0.00 0.00 60 1014.1
20260505231332 66 350 0.0 0.0 0.00 0.00 0.00 59 1014.2
20260505230345 66 279 0.0 0.0 0.00 0.00 0.00 60 1014.3
20260505225341 65 292 0.0 0.0 0.00 0.00 0.00 61 1014.3
20260505224337 64 267 0.0 0.0 0.00 0.00 0.00 60 1014.4
20260505223406 65 219 0.0 0.0 0.00 0.00 0.00 59 1014.4
20260505222342 65 253 0.0 0.0 0.00 0.00 0.00 59 1014.4
20260505221336 65 279 0.0 0.0 0.00 0.00 0.00 59 1014.5
20260505220349 66 269 0.0 0.0 0.00 0.00 0.00 57 1014.8
20260505215342 66 261 0.0 0.0 0.00 0.00 0.00 58 1014.8
20260505214334 66 321 0.0 0.0 0.00 0.00 0.00 61 1015.0
20260505213408 65 271 0.0 0.0 0.00 0.00 0.00 59 1015.1
20260505212341 64 290 0.0 0.0 0.00 0.00 0.00 60 1015.1
20260505211333 66 283 0.0 0.0 0.00 0.00 0.00 59 1015.0
20260505210346 66 284 0.0 0.0 0.00 0.00 0.00 59 1014.9
20260505205340 65 275 0.0 0.0 0.00 0.00 0.00 63 1014.9
20260505204334 65 355 0.0 0.0 0.00 0.00 0.00 62 1014.9
20260505203346 65 223 0.0 0.0 0.00 0.00 0.00 62 1015.1
20260505202340 63 217 0.0 0.0 0.00 0.00 0.00 64 1015.1
20260505201332 64 310 0.0 0.0 0.00 0.00 0.00 64 1015.0
20260505200346 64 316 0.0 0.0 0.00 0.00 0.00 65 1015.0
20260505195340 64 284 0.0 0.0 0.00 0.00 0.00 64 1015.0
20260505194333 65 275 0.0 0.0 0.00 0.00 0.00 62 1015.0
20260505193350 66 289 0.0 0.0 0.00 0.00 0.00 62 1015.0
20260505192343 65 217 0.0 0.0 0.00 0.00 0.00 63 1015.0
20260505191337 64 267 0.0 0.0 0.00 0.00 0.00 63 1015.1
20260505190335 65 329 0.0 0.0 0.00 0.00 0.00 61 1015.1
20260505185346 64 316 0.0 0.0 0.00 0.00 0.00 61 1015.1
20260505184339 64 271 0.0 0.0 0.00 0.00 0.00 64 1015.2
20260505183352 63 250 0.0 0.0 0.00 0.00 0.00 65 1015.2
20260505182344 64 277 0.0 0.0 0.00 0.00 0.00 63 1015.2
20260505181338 62 47 0.0 0.0 0.00 0.00 0.00 65 1015.3
20260505180349 62 278 0.0 0.0 0.00 0.00 0.00 66 1015.2
20260505175405 62 340 0.0 0.0 0.00 0.00 0.00 65 1015.2
20260505174338 61 5 0.0 0.0 0.00 0.00 0.00 65 1015.2
20260505173350 61 13 0.0 0.0 0.00 0.00 0.00 64 1015.0
20260505172344 61 344 0.0 0.0 0.00 0.00 0.00 66 1015.0
20260505171336 60 19 0.0 0.0 0.00 0.00 0.00 68 1015.0
20260505170350 59 295 0.0 0.0 0.00 0.00 0.00 70 1015.2
20260505165406 58 355 0.0 0.0 0.00 0.00 0.00 69 1015.2
20260505164338 58 194 0.0 0.0 0.00 0.00 0.00 70 1015.3
20260505163333 57 193 0.0 0.0 0.00 0.00 0.00 72 1015.3
20260505162347 57 191 0.0 0.0 0.00 0.00 0.00 73 1015.3
20260505161341 57 187 0.0 0.0 0.00 0.00 0.00 73 1015.1
20260505160334 56 182 0.0 0.0 0.00 0.00 0.00 77 1015.0